Regional Weather Roundup
Issued by NWS

Home | Current Version | Previous Version | Graphics & Text | Print | Product List | Glossary On
Versions: 1 2 3 4 5 6 7 8 9 10 11 12 13 14 15 16 17 18 19 20 21 22 23 24 25 26 27 28 29 30 31 32 33 34 35 36 37 38 39 40 41 42 43 44 45 46 47 48 49 50
000
ASUS43 KTOP 281559
RWRKS

WEATHER ROUNDUP FOR KANSAS
NATIONAL WEATHER SERVICE GOODLAND KS
1100 AM CDT THU APR 28 2016

NOTE:  "FAIR" INDICATES FEW OR NO CLOUDS BELOW 12,000 FEET WITH NO
SIGNIFICANT WEATHER AND/OR OBSTRUCTIONS TO VISIBILITY.

KSZ001>006-013>018-027>032-041>047-281700-
NORTHWEST KANSAS

CITY           SKY/WX    TMP DP  RH WIND       PRES   REMARKS
GOODLAND       CLOUDY    43  29  57 N16       30.00S
HAYS           MOSUNNY   46  30  53 N15       30.00S
HILL CITY      MOSUNNY   47  34  60 N10       30.02S
RUSSELL        PTSUNNY   48  35  60 N12       29.99R
$$

KSZ061>065-074>080-084>089-281700-
SOUTHWEST KANSAS

CITY           SKY/WX    TMP DP  RH WIND       PRES   REMARKS
DODGE CITY     CLOUDY    46  31  55 N18       30.00S
ELKHART          N/A     48  32  54 NE12        N/A
GARDEN CITY    CLOUDY    46  32  58 NE16      29.99S
GREAT BEND     MOSUNNY   48  32  53 N14       30.01R
LIBERAL        SUNNY     52  36  54 NE14      29.99R
$$

KSZ066>073-081>083-090>101-281700-
SOUTHEAST KANSAS

CITY           SKY/WX    TMP DP  RH WIND       PRES   REMARKS
CHANUTE        SUNNY     57  41  55 NW9G20    29.96F
COFFEYVILLE    SUNNY     59  40  49 NW12      29.97R
HUTCHINSON     MOSUNNY   54  36  50 N12       29.98S
MEDICINE LODGE   N/A     56  35  45 N15       29.98R
NEWTON         SUNNY     52  36  54 NW13      30.00S
PARSONS        SUNNY     58  42  55 N12       29.98R
WICHITA INTL   PTSUNNY   56  38  50 NW14      29.98R
WICHITA JABRA  MOSUNNY   54  38  54 N16       29.98R
WINFIELD         N/A     56  40  55 N12       29.98S
$$

KSZ007>012-019>026-033>040-048>060-102>105-281700-
NORTHEAST KANSAS

CITY           SKY/WX    TMP DP  RH WIND       PRES   REMARKS
CONCORDIA      CLOUDY    47  39  74 NW10      29.99R
EMPORIA        SUNNY     50  40  68 NW12      29.96F
LAWRENCE       MOSUNNY   53  44  71 W10       29.96R
MANHATTAN      PTSUNNY   52  40  63 VRB6      29.98R
OLATHE IND     PTSUNNY   53  44  71 W13       29.96R
OLATHE EXE     CLOUDY    51  43  74 W8        29.95R
SALINA         SUNNY     55  40  56 NW13      29.99R
TOPEKA BILLARD PTSUNNY   51  43  74 W16G22    29.97R
TOPEKA FORBES  CLOUDY    53  43  68 W12       29.96R
$$




USA.gov is the U.S. government's official web portal to all federal, state and local government web resources and services.